{"data":{"norad_id":55142,"intl_designator":"2023-004C","name":"ONEWEB-0541","alt_names":[],"object_type":"PAYLOAD","status":"ACTIVE","operator":null,"country":"UK","launch_date":"2023-01-10","launch_site_code":"AFETR","launch_vehicle":null,"mission":null,"orbit_class":"UNKNOWN","rcs_meters":null,"size_class":null,"mass_kg":null,"dimensions":null,"purposes":["comms"],"wikipedia_slug":null,"has_3d_model":false,"image_url":null,"decayed_at":null,"tle_current":{"epoch":"2026-05-25T03:22:34.855680Z","epoch_age_seconds":56108,"freshness":"FRESH","line1":"1 55142U 23004C   26145.14068120 -.00000101  00000+0 -31962-3 0  9993","line2":"2 55142  87.8916  25.6415 0001658  86.3512 273.7806 13.11415477162923","mean_motion":13.11415477,"eccentricity":0.0001658,"inclination_deg":87.8916,"raan_deg":25.6415,"arg_perigee_deg":86.3512,"mean_anomaly_deg":273.7806,"bstar":-0.00031962,"rev_number":16292,"period_min":109.80501795618,"perigee_km":1216.4289790397,"apogee_km":1218.9477547314,"semimajor_km":7595.8253668856,"source":"CELESTRAK","updated_at":"2026-05-25T13:38:22.639464Z"}}}